Location: Le Hiès Ruisseau
(43.3000°N, 0.4500°W)
Time: 13:06:04
(UTC+00:00)

NOSS 2-1 (D) - Pass Details

Date: 28 January 2023
Orbit: 418 x 1759 km, 63.3° (Epoch: 19 March)

Event Time Altitude Azimuth Distance (km) Brightness Sun altitude
Rises 19:01:36 0° 320° (NW) 2,787 7.4 -20.7°
Reaches altitude 10° 19:03:33 10° 317° (NW) 2,013 6.7 -21.1°
Maximum altitude 19:08:02 66° 236° (SW) 851 4.3 -21.9°
Drops below altitude 10° 19:14:21 10° 156° (SSE) 2,808 6.7 -23.0°
Enters shadow 19:17:21 - 154° (SSE) 3,943 7.4 -23.6°
